Weather History for Olney-Noble, IL

Change the Weather History Date:

Monday, May 7, 2012

  Actual Average (KEVV) Record (KEVV)
Temperature  
Mean Temperature 74 °F 63 °F  
Max Temperature 82 °F 74 °F 89 °F (1986)
Min Temperature 66 °F 52 °F 33 °F (1944)
Degree Days  
Heating Degree Days 0 4  
Month to date heating degree days 31  
Since 1 July heating degree days 4486  
Cooling Degree Days 9 2  
Month to date cooling degree days 11  
Year to date cooling degree days 38  
Growing Degree Days 24 (Base 50)    
Moisture  
Dew Point 64 °F    
Average Humidity 72    
Maximum Humidity 94    
Minimum Humidity 51    
Precipitation  
Precipitation 0.00 in 0.17 in 4.28 in (1961)
Month to date precipitation 1.20  
Year to date precipitation 16.08  
Snow  
Snow 0.00 in 0.00 in T in (1955)
Month to date snowfall 0.0  
Since 1 July snowfall 11.8  
Snow Depth -    
Sea Level Pressure  
Sea Level Pressure 29.84 in    
Wind  
Wind Speed 6 mph (West)    
Max Wind Speed 14 mph    
Max Gust Speed 23 mph    
Visibility 10 miles    
Events Rain    
T = Trace of Precipitation, MM = Missing Value Source: NWS Daily Summary

Daily Weather History Graph

Daily Weather History Graph

Search for Another Location

Airport:

Trip Planner

Search our weather history database for the weather conditions in past years. The results will help you decide how hot, cold, wet, or windy it might be!

Date:

Astronomy

May. 07, 2012 Rise Set
Actual Time 5:47 AM CDT 7:51 PM CDT
Civil Twilight 5:18 AM CDT 8:20 PM CDT
Nautical Twilight 4:42 AM CDT 8:56 PM CDT
Astronomical Twilight 4:04 AM CDT 9:35 PM CDT
Moon 10:01 PM CDT (5/7) 6:54 AM CDT (5/7)
Length of Visible Light 15h 01m
Length of Day
14h 03m
Waning Gibbous, 96% of the Moon is Illuminated
May 7
Waning Gibbous
May 12
Last Quarter
May 20
New
May 28
First Quarter
Jun 4
Full

Hourly Weather History & Observations

Time (CDT) Temp. Heat Index Dew Point Humidity Pressure Visibility Wind Dir Wind Speed Gust Speed Precip Events Conditions
12:15 AM 77.0 °F - 66.2 °F 69% 29.85 in 10.0 mi South 5.8 mph - N/A   Clear
12:35 AM 75.2 °F - 66.2 °F 73% 29.84 in 7.0 mi SSE 5.8 mph - N/A   Clear
12:55 AM 75.2 °F - 66.2 °F 73% 29.83 in 5.0 mi SE 4.6 mph - N/A   Haze
1:15 AM 75.2 °F - 66.2 °F 73% 29.83 in 10.0 mi Calm Calm - N/A   Clear
1:35 AM 73.4 °F - 66.2 °F 78% 29.82 in 10.0 mi SSE 3.5 mph - N/A   Scattered Clouds
1:55 AM 73.4 °F - 66.2 °F 78% 29.81 in 10.0 mi South 3.5 mph - N/A   Scattered Clouds
2:15 AM 73.4 °F - 66.2 °F 78% 29.80 in 10.0 mi South 5.8 mph - N/A   Scattered Clouds
2:35 AM 73.4 °F - 66.2 °F 78% 29.80 in 10.0 mi South 4.6 mph - N/A   Clear
2:55 AM 73.4 °F - 66.2 °F 78% 29.81 in 10.0 mi South 3.5 mph - N/A   Scattered Clouds
3:15 AM 73.4 °F - 66.2 °F 78% 29.81 in 10.0 mi Calm Calm - N/A   Mostly Cloudy
3:35 AM 73.4 °F - 66.2 °F 78% 29.82 in 10.0 mi Calm Calm - N/A   Mostly Cloudy
3:55 AM 73.4 °F - 66.2 °F 78% 29.82 in 10.0 mi Calm Calm - N/A   Mostly Cloudy
4:15 AM 71.6 °F - 66.2 °F 83% 29.82 in 10.0 mi Calm Calm - N/A   Scattered Clouds
4:35 AM 71.6 °F - 66.2 °F 83% 29.83 in 10.0 mi Calm Calm - N/A   Scattered Clouds
4:55 AM 71.6 °F - 64.4 °F 78% 29.82 in 10.0 mi Calm Calm - N/A   Scattered Clouds
5:15 AM 71.6 °F - 64.4 °F 78% 29.82 in 10.0 mi Calm Calm - N/A   Clear
5:35 AM 71.6 °F - 62.6 °F 73% 29.82 in 10.0 mi SW 3.5 mph - N/A   Clear
5:55 AM 71.6 °F - 62.6 °F 73% 29.81 in 10.0 mi West 4.6 mph - N/A   Clear
6:15 AM 71.6 °F - 62.6 °F 73% 29.82 in 10.0 mi West 10.4 mph - N/A   Clear
6:35 AM 71.6 °F - 64.4 °F 78% 29.83 in 10.0 mi West 10.4 mph - N/A   Clear
6:55 AM 71.6 °F - 62.6 °F 73% 29.85 in 10.0 mi West 10.4 mph - N/A   Clear
7:15 AM 73.4 °F - 64.4 °F 73% 29.84 in 10.0 mi WNW 6.9 mph - N/A   Scattered Clouds
7:35 AM 73.4 °F - 62.6 °F 69% 29.87 in 10.0 mi West 6.9 mph - N/A   Mostly Cloudy
7:55 AM 71.6 °F - 62.6 °F 73% 29.86 in 10.0 mi WNW 13.8 mph - N/A Rain Light Rain
8:15 AM 71.6 °F - 62.6 °F 73% 29.86 in 10.0 mi WNW 8.1 mph - N/A   Clear
8:35 AM 75.2 °F - 64.4 °F 69% 29.86 in 10.0 mi NW 8.1 mph - N/A   Clear
8:55 AM 73.4 °F - 64.4 °F 73% 29.86 in 10.0 mi NW 6.9 mph - N/A   Clear
9:15 AM 75.2 °F - 64.4 °F 69% 29.87 in 10.0 mi NW 6.9 mph - N/A   Clear
9:35 AM 75.2 °F - 64.4 °F 69% 29.86 in 10.0 mi WNW 9.2 mph - N/A   Clear
9:55 AM 78.8 °F - 62.6 °F 57% 29.86 in 10.0 mi West 8.1 mph - N/A   Clear
10:15 AM 78.8 °F - 64.4 °F 61% 29.87 in 10.0 mi West 4.6 mph - N/A   Clear
10:35 AM 80.6 °F 82.3 °F 64.4 °F 58% 29.88 in 10.0 mi West 5.8 mph - N/A   Clear
10:55 AM 78.8 °F - 62.6 °F 57% 29.88 in 10.0 mi WSW 4.6 mph - N/A   Clear
11:15 AM 78.8 °F - 64.4 °F 61% 29.88 in 10.0 mi WSW 6.9 mph - N/A   Scattered Clouds
11:35 AM 80.6 °F 82.3 °F 64.4 °F 58% 29.87 in 10.0 mi SSW 4.6 mph - N/A   Clear
11:55 AM 80.6 °F 82.3 °F 64.4 °F 58% 29.87 in 10.0 mi West 4.6 mph - N/A   Scattered Clouds
12:15 PM 82.4 °F 83.4 °F 62.6 °F 51% 29.86 in 10.0 mi WSW 4.6 mph - N/A   Scattered Clouds
12:35 PM 82.4 °F 83.4 °F 62.6 °F 51% 29.85 in 10.0 mi WSW 5.8 mph - N/A   Scattered Clouds
12:55 PM 82.4 °F 83.4 °F 62.6 °F 51% 29.84 in 10.0 mi SW 4.6 mph - N/A   Scattered Clouds
1:15 PM 82.4 °F 83.4 °F 62.6 °F 51% 29.84 in 10.0 mi SW 6.9 mph - N/A   Mostly Cloudy
1:35 PM 80.6 °F 81.8 °F 62.6 °F 54% 29.84 in 10.0 mi WSW 5.8 mph - N/A   Mostly Cloudy
1:55 PM 82.4 °F 83.4 °F 62.6 °F 51% 29.84 in 10.0 mi WSW 6.9 mph - N/A   Scattered Clouds
2:15 PM 82.4 °F 83.4 °F 62.6 °F 51% 29.84 in 10.0 mi West 6.9 mph - N/A   Mostly Cloudy
2:35 PM 80.6 °F 81.8 °F 62.6 °F 54% 29.83 in 10.0 mi WNW 9.2 mph - N/A   Mostly Cloudy
2:55 PM 78.8 °F - 64.4 °F 61% 29.83 in 10.0 mi WNW 12.7 mph 17.3 mph N/A   Mostly Cloudy
3:15 PM 75.2 °F - 64.4 °F 69% 29.82 in 10.0 mi WNW 10.4 mph 16.1 mph N/A Rain Light Rain
3:35 PM 78.8 °F - 62.6 °F 57% 29.82 in 10.0 mi West 9.2 mph - N/A   Scattered Clouds
3:55 PM 78.8 °F - 64.4 °F 61% 29.82 in 10.0 mi West 11.5 mph - N/A   Scattered Clouds
4:15 PM 77.0 °F - 62.6 °F 61% 29.82 in 10.0 mi WNW 12.7 mph - N/A   Scattered Clouds
4:35 PM 77.0 °F - 64.4 °F 65% 29.82 in 10.0 mi WNW 10.4 mph - N/A   Scattered Clouds
4:55 PM 75.2 °F - 64.4 °F 69% 29.82 in 10.0 mi West 10.4 mph - N/A   Scattered Clouds
5:15 PM 75.2 °F - 64.4 °F 69% 29.82 in 10.0 mi West 11.5 mph - N/A   Scattered Clouds
5:35 PM 75.2 °F - 62.6 °F 65% 29.82 in 10.0 mi WNW 12.7 mph 17.3 mph N/A   Mostly Cloudy
5:55 PM 75.2 °F - 64.4 °F 69% 29.82 in 10.0 mi WNW 10.4 mph - N/A   Scattered Clouds
6:15 PM 71.6 °F - 64.4 °F 78% 29.82 in 10.0 mi NW 13.8 mph 23.0 mph N/A   Scattered Clouds
6:35 PM 69.8 °F - 64.4 °F 83% 29.83 in 10.0 mi NW 10.4 mph - N/A   Mostly Cloudy
6:55 PM 69.8 °F - 64.4 °F 83% 29.83 in 10.0 mi NW 10.4 mph - N/A   Scattered Clouds
7:15 PM 69.8 °F - 64.4 °F 83% 29.83 in 10.0 mi NW 8.1 mph - N/A   Mostly Cloudy
7:35 PM 69.8 °F - 64.4 °F 83% 29.83 in 10.0 mi NNW 9.2 mph - N/A   Mostly Cloudy
7:55 PM 69.8 °F - 64.4 °F 83% 29.83 in 10.0 mi NW 6.9 mph - N/A   Scattered Clouds
8:15 PM 68.0 °F - 64.4 °F 88% 29.84 in 10.0 mi NW 6.9 mph - N/A   Scattered Clouds
8:35 PM 68.0 °F - 64.4 °F 88% 29.84 in 10.0 mi WNW 8.1 mph - N/A   Scattered Clouds
8:55 PM 68.0 °F - 64.4 °F 88% 29.86 in 10.0 mi WNW 6.9 mph - N/A   Mostly Cloudy
9:15 PM 68.0 °F - 64.4 °F 88% 29.86 in 10.0 mi NW 6.9 mph - N/A   Overcast
9:35 PM 68.0 °F - 64.4 °F 88% 29.86 in 10.0 mi NW 6.9 mph - N/A   Mostly Cloudy
9:55 PM 68.0 °F - 64.4 °F 88% 29.87 in 10.0 mi NW 6.9 mph - N/A   Overcast
10:15 PM 68.0 °F - 64.4 °F 88% 29.88 in 10.0 mi NW 10.4 mph - N/A   Overcast
10:35 PM 66.2 °F - 64.4 °F 94% 29.88 in 10.0 mi NW 9.2 mph - N/A   Overcast
10:55 PM 66.2 °F - 64.4 °F 94% 29.88 in 10.0 mi NNW 11.5 mph - N/A   Light Drizzle
11:15 PM 66.2 °F - 62.6 °F 88% 29.87 in 10.0 mi North 8.1 mph - N/A   Overcast
11:35 PM 66.2 °F - 62.6 °F 88% 29.87 in 10.0 mi NNW 9.2 mph - N/A   Overcast
11:55 PM 66.2 °F - 62.6 °F 88% 29.88 in 10.0 mi NNW 8.1 mph - N/A   Overcast